owner,sensor,date,latitude,longitude,vertical_datum,wind_speed,wind_to_direction,wind_speed_of_gust,qcFlag 
CenGOOS,ioos:station:wmo:42067:1,2016-04-02T05:40Z,30.0430,-88.6490,5.0,9.8,7.1,11.8,'1111122,1111122,1111122' 
CenGOOS,ioos:station:wmo:42067:1,2016-04-02T23:40Z,30.0430,-88.6490,5.0,7.0,320.9,8.3,'1111122,1111122,1111122' 
CenGOOS,ioos:station:wmo:42067:1,2016-04-05T20:40Z,30.0430,-88.6490,5.0,4.2,155.7,5.1,'1111122,1111122,1111122' 
CenGOOS,ioos:station:wmo:42067:1,2016-04-06T02:40Z,30.0430,-88.6490,5.0,3.8,181.0,4.5,'1111122,1111122,1111122' 
CenGOOS,ioos:station:wmo:42067:1,2016-04-06T08:40Z,30.0430,-88.6490,5.0,1.9,120.4,2.3,'1111122,1111122,1111122' 
CenGOOS,ioos:station:wmo:42067:1,2016-04-08T08:40Z,30.0430,-88.6490,5.0,6.5,280.2,7.4,'1111122,1111122,1111122' 
CenGOOS,ioos:station:wmo:42067:1,2016-04-08T11:40Z,30.0430,-88.6490,5.0,8.1,322.2,9.6,'1111122,1111122,1111122' 
CenGOOS,ioos:station:wmo:42067:1,2016-04-08T14:40Z,30.0430,-88.6490,5.0,9.1,10.1,10.6,'1111122,1111122,1111122' 
CenGOOS,ioos:station:wmo:42067:1,2016-04-08T17:40Z,30.0430,-88.6490,5.0,1.5,14.6,2.7,'1111122,1111122,1111122' 
CenGOOS,ioos:station:wmo:42067:1,2016-04-08T20:40Z,30.0430,-88.6490,5.0,5.6,295.7,7.1,'1111122,1111122,1111122' 
CenGOOS,ioos:station:wmo:42067:1,2016-04-08T23:40Z,30.0430,-88.6490,5.0,5.1,274.0,6.0,'1111122,1111122,1111122' 
CenGOOS,ioos:station:wmo:42067:1,2016-04-09T02:40Z,30.0430,-88.6490,5.0,8.2,332.8,10.0,'1111122,1111122,1111122' 
CenGOOS,ioos:station:wmo:42067:1,2016-04-09T05:40Z,30.0430,-88.6490,5.0,11.1,342.8,13.0,'1111122,1111122,1111122' 
CenGOOS,ioos:station:wmo:42067:1,2016-04-09T08:40Z,30.0430,-88.6490,5.0,6.8,9.5,8.0,'1111122,1111122,1111122' 
CenGOOS,ioos:station:wmo:42067:1,2016-04-09T11:40Z,30.0430,-88.6490,5.0,4.4,47.7,5.3,'1111122,1111122,1111122' 
CenGOOS,ioos:station:wmo:42067:1,2016-04-09T14:40Z,30.0430,-88.6490,5.0,2.0,105.1,2.5,'1111122,1111122,1111122' 
CenGOOS,ioos:station:wmo:42067:1,2016-04-09T17:40Z,30.0430,-88.6490,5.0,2.2,199.1,2.9,'1111122,1111122,1111122' 
CenGOOS,ioos:station:wmo:42067:1,2016-04-09T20:40Z,30.0430,-88.6490,5.0,5.5,197.7,6.7,'1111122,1111122,1111122' 
CenGOOS,ioos:station:wmo:42067:1,2016-04-09T23:40Z,30.0430,-88.6490,5.0,4.9,224.0,5.7,'1111122,1111122,1111122' 
CenGOOS,ioos:station:wmo:42067:1,2016-04-10T02:40Z,30.0430,-88.6490,5.0,3.0,224.2,3.7,'1111122,1111122,1111122' 
CenGOOS,ioos:station:wmo:42067:1,2016-04-10T05:40Z,30.0430,-88.6490,5.0,3.3,238.4,4.2,'1111122,1111122,1111122' 
CenGOOS,ioos:station:wmo:42067:1,2016-04-10T08:40Z,30.0430,-88.6490,5.0,1.1,266.9,1.4,'1111122,1111122,1111122' 
CenGOOS,ioos:station:wmo:42067:1,2016-04-10T11:40Z,30.0430,-88.6490,5.0,0.6,76.2,1.2,'1111122,1111122,1111122' 
CenGOOS,ioos:station:wmo:42067:1,2016-04-10T14:40Z,30.0430,-88.6490,5.0,6.3,100.4,7.4,'1111122,1111122,1111122' 
CenGOOS,ioos:station:wmo:42067:1,2016-04-10T23:40Z,30.0430,-88.6490,5.0,8.8,141.5,10.6,'1111122,1111122,1111122' 
CenGOOS,ioos:station:wmo:42067:1,2016-04-11T02:40Z,30.0430,-88.6490,5.0,8.9,144.3,10.6,'1111122,1111122,1111122' 
CenGOOS,ioos:station:wmo:42067:1,2016-04-11T05:40Z,30.0430,-88.6490,5.0,9.0,156.4,10.7,'1111122,1111122,1111122' 
CenGOOS,ioos:station:wmo:42067:1,2016-04-11T08:40Z,30.0430,-88.6490,5.0,6.9,168.5,8.3,'1111122,1111122,1111122' 
CenGOOS,ioos:station:wmo:42067:1,2016-04-11T11:40Z,30.0430,-88.6490,5.0,4.1,160.7,5.1,'1111122,1111122,1111122' 
CenGOOS,ioos:station:wmo:42067:1,2016-04-11T14:40Z,30.0430,-88.6490,5.0,3.4,142.8,4.0,'1111122,1111122,1111122' 
CenGOOS,ioos:station:wmo:42067:1,2016-04-11T17:40Z,30.0430,-88.6490,5.0,9.5,139.3,12.0,'1111122,1111122,1111122' 
CenGOOS,ioos:station:wmo:42067:1,2016-04-11T20:40Z,30.0430,-88.6490,5.0,3.3,135.0,3.8,'1111122,1111122,1111122' 
CenGOOS,ioos:station:wmo:42067:1,2016-04-11T23:40Z,30.0430,-88.6490,5.0,3.5,161.2,4.5,'1111122,1111122,1111122' 
CenGOOS,ioos:station:wmo:42067:1,2016-04-12T02:40Z,30.0430,-88.6490,5.0,4.4,178.7,5.3,'1111122,1111122,1111122' 
CenGOOS,ioos:station:wmo:42067:1,2016-04-12T05:40Z,30.0430,-88.6490,5.0,1.0,203.2,1.3,'1111122,1111122,1111122' 
CenGOOS,ioos:station:wmo:42067:1,2016-04-12T08:40Z,30.0430,-88.6490,5.0,8.6,65.7,10.8,'1111122,1111122,1111122' 
CenGOOS,ioos:station:wmo:42067:1,2016-04-12T11:40Z,30.0430,-88.6490,5.0,5.3,70.5,6.4,'1111122,1111122,1111122' 
CenGOOS,ioos:station:wmo:42067:1,2016-04-12T14:40Z,30.0430,-88.6490,5.0,6.2,124.5,7.9,'1111122,1111122,1111122' 
CenGOOS,ioos:station:wmo:42067:1,2016-04-12T17:40Z,30.0430,-88.6490,5.0,5.4,88.8,6.3,'1111122,1111122,1111122' 
CenGOOS,ioos:station:wmo:42067:1,2016-04-12T20:40Z,30.0430,-88.6490,5.0,6.4,68.8,7.3,'1111122,1111122,1111122' 
CenGOOS,ioos:station:wmo:42067:1,2016-04-12T23:40Z,30.0430,-88.6490,5.0,6.7,61.7,7.8,'1111122,1111122,1111122' 
CenGOOS,ioos:station:wmo:42067:1,2016-04-13T02:40Z,30.0430,-88.6490,5.0,5.8,59.2,6.9,'1111122,1111122,1111122' 
CenGOOS,ioos:station:wmo:42067:1,2016-04-13T05:40Z,30.0430,-88.6490,5.0,4.4,67.3,5.3,'1111122,1111122,1111122' 
CenGOOS,ioos:station:wmo:42067:1,2016-04-13T08:40Z,30.0430,-88.6490,5.0,5.2,66.9,6.3,'1111122,1111122,1111122' 
CenGOOS,ioos:station:wmo:42067:1,2016-04-13T11:40Z,30.0430,-88.6490,5.0,5.8,53.2,7.0,'1111122,1111122,1111122' 
CenGOOS,ioos:station:wmo:42067:1,2016-04-13T14:40Z,30.0430,-88.6490,5.0,4.8,59.0,5.9,'1111122,1111122,1111122' 
CenGOOS,ioos:station:wmo:42067:1,2016-04-13T17:40Z,30.0430,-88.6490,5.0,6.8,344.2,8.4,'1111122,1111122,1111122' 
CenGOOS,ioos:station:wmo:42067:1,2016-04-13T20:40Z,30.0430,-88.6490,5.0,7.6,112.4,8.9,'1111122,1111122,1111122' 
CenGOOS,ioos:station:wmo:42067:1,2016-04-13T23:40Z,30.0430,-88.6490,5.0,6.6,166.1,8.1,'1111122,1111122,1111122' 
CenGOOS,ioos:station:wmo:42067:1,2016-04-14T02:40Z,30.0430,-88.6490,5.0,3.7,66.3,4.6,'1111122,1111122,1111122' 
CenGOOS,ioos:station:wmo:42067:1,2016-04-14T05:40Z,30.0430,-88.6490,5.0,5.1,58.6,6.0,'1111122,1111122,1111122' 
CenGOOS,ioos:station:wmo:42067:1,2016-04-14T08:40Z,30.0430,-88.6490,5.0,5.0,97.2,6.0,'1111122,1111122,1111122' 
CenGOOS,ioos:station:wmo:42067:1,2016-04-14T17:40Z,30.0430,-88.6490,5.0,8.0,120.5,10.1,'1111122,1111122,1111122' 
CenGOOS,ioos:station:wmo:42067:1,2016-04-14T20:40Z,30.0430,-88.6490,5.0,9.1,98.5,10.7,'1111122,1111122,1111122' 
CenGOOS,ioos:station:wmo:42067:1,2016-04-14T23:40Z,30.0430,-88.6490,5.0,9.1,117.7,10.9,'1111122,1111122,1111122' 
CenGOOS,ioos:station:wmo:42067:1,2016-04-15T02:40Z,30.0430,-88.6490,5.0,8.3,100.2,10.3,'1111122,1111122,1111122' 
CenGOOS,ioos:station:wmo:42067:1,2016-04-15T08:40Z,30.0430,-88.6490,5.0,9.5,91.5,11.5,'1111122,1111122,1111122' 
CenGOOS,ioos:station:wmo:42067:1,2016-04-15T11:40Z,30.0430,-88.6490,5.0,9.7,85.3,11.4,'1111122,1111122,1111122' 
CenGOOS,ioos:station:wmo:42067:1,2016-04-15T14:40Z,30.0430,-88.6490,5.0,9.9,84.6,11.4,'1111122,1111122,1111122' 
CenGOOS,ioos:station:wmo:42067:1,2016-04-15T17:40Z,30.0430,-88.6490,5.0,10.3,90.4,12.4,'1111122,1111122,1111122' 
CenGOOS,ioos:station:wmo:42067:1,2016-04-15T20:40Z,30.0430,-88.6490,5.0,9.7,88.4,11.6,'1111122,1111122,1111122' 
CenGOOS,ioos:station:wmo:42067:1,2016-04-15T23:40Z,30.0430,-88.6490,5.0,10.6,91.0,12.8,'1111122,1111122,1111122' 
CenGOOS,ioos:station:wmo:42067:1,2016-04-16T02:40Z,30.0430,-88.6490,5.0,8.5,77.5,10.7,'1111122,1111122,1111122' 
CenGOOS,ioos:station:wmo:42067:1,2016-04-16T05:40Z,30.0430,-88.6490,5.0,8.5,79.9,9.9,'1111122,1111122,1111122' 
CenGOOS,ioos:station:wmo:42067:1,2016-04-16T08:40Z,30.0430,-88.6490,5.0,10.9,90.0,13.3,'1111122,1111122,1111122' 
CenGOOS,ioos:station:wmo:42067:1,2016-04-16T11:40Z,30.0430,-88.6490,5.0,11.0,90.1,13.2,'1111122,1111122,1111122' 
CenGOOS,ioos:station:wmo:42067:1,2016-04-16T14:40Z,30.0430,-88.6490,5.0,11.9,91.9,14.5,'1111122,1111122,1111122' 
CenGOOS,ioos:station:wmo:42067:1,2016-04-16T17:40Z,30.0430,-88.6490,5.0,11.0,89.2,13.6,'1111122,1111122,1111122' 
CenGOOS,ioos:station:wmo:42067:1,2016-04-16T20:40Z,30.0430,-88.6490,5.0,11.1,91.7,13.4,'1111122,1111122,1111122' 
CenGOOS,ioos:station:wmo:42067:1,2016-04-17T02:40Z,30.0430,-88.6490,5.0,9.1,70.7,11.3,'1111122,1111122,1111122' 
CenGOOS,ioos:station:wmo:42067:1,2016-04-17T05:40Z,30.0430,-88.6490,5.0,10.1,88.0,11.9,'1111122,1111122,1111122' 
CenGOOS,ioos:station:wmo:42067:1,2016-04-17T11:40Z,30.0430,-88.6490,5.0,11.8,103.5,14.5,'1111122,1111122,1111122' 
CenGOOS,ioos:station:wmo:42067:1,2016-04-17T14:40Z,30.0430,-88.6490,5.0,11.7,104.8,14.2,'1111122,1111122,1111122' 
CenGOOS,ioos:station:wmo:42067:1,2016-04-17T17:40Z,30.0430,-88.6490,5.0,10.4,104.1,13.6,'1111122,1111122,1111122' 
CenGOOS,ioos:station:wmo:42067:1,2016-04-17T20:40Z,30.0430,-88.6490,5.0,9.5,106.1,11.4,'1111122,1111122,1111122' 
CenGOOS,ioos:station:wmo:42067:1,2016-04-17T23:40Z,30.0430,-88.6490,5.0,8.7,113.3,10.5,'1111122,1111122,1111122' 
CenGOOS,ioos:station:wmo:42067:1,2016-04-18T02:40Z,30.0430,-88.6490,5.0,6.7,121.5,8.0,'1111122,1111122,1111122' 
CenGOOS,ioos:station:wmo:42067:1,2016-04-18T05:40Z,30.0430,-88.6490,5.0,5.4,104.4,6.4,'1111122,1111122,1111122' 
CenGOOS,ioos:station:wmo:42067:1,2016-04-18T08:40Z,30.0430,-88.6490,5.0,7.1,98.0,8.8,'1111122,1111122,1111122' 
CenGOOS,ioos:station:wmo:42067:1,2016-04-18T14:40Z,30.0430,-88.6490,5.0,9.5,117.6,11.4,'1111122,1111122,1111122' 
CenGOOS,ioos:station:wmo:42067:1,2016-04-18T17:40Z,30.0430,-88.6490,5.0,9.0,109.6,10.9,'1111122,1111122,1111122' 
CenGOOS,ioos:station:wmo:42067:1,2016-04-18T20:40Z,30.0430,-88.6490,5.0,7.8,101.6,9.1,'1111122,1111122,1111122' 
CenGOOS,ioos:station:wmo:42067:1,2016-04-18T23:40Z,30.0430,-88.6490,5.0,7.0,112.4,8.7,'1111122,1111122,1111122' 
CenGOOS,ioos:station:wmo:42067:1,2016-04-19T02:40Z,30.0430,-88.6490,5.0,6.2,131.8,7.2,'1111122,1111122,1111122' 
CenGOOS,ioos:station:wmo:42067:1,2016-04-19T05:40Z,30.0430,-88.6490,5.0,6.3,125.9,7.4,'1111122,1111122,1111122' 
CenGOOS,ioos:station:wmo:42067:1,2016-04-19T08:40Z,30.0430,-88.6490,5.0,5.4,119.3,6.4,'1111122,1111122,1111122' 
CenGOOS,ioos:station:wmo:42067:1,2016-04-19T11:40Z,30.0430,-88.6490,5.0,5.0,117.3,5.9,'1111122,1111122,1111122' 
CenGOOS,ioos:station:wmo:42067:1,2016-04-19T17:40Z,30.0430,-88.6490,5.0,5.5,108.4,6.2,'1111122,1111122,1111122' 
CenGOOS,ioos:station:wmo:42067:1,2016-04-19T20:40Z,30.0430,-88.6490,5.0,4.5,117.4,5.3,'1111122,1111122,1111122' 
CenGOOS,ioos:station:wmo:42067:1,2016-04-19T23:40Z,30.0430,-88.6490,5.0,4.8,130.0,5.9,'1111122,1111122,1111122' 
CenGOOS,ioos:station:wmo:42067:1,2016-04-20T02:40Z,30.0430,-88.6490,5.0,5.9,134.9,6.9,'1111122,1111122,1111122' 
CenGOOS,ioos:station:wmo:42067:1,2016-04-20T05:40Z,30.0430,-88.6490,5.0,4.7,177.2,5.6,'1111122,1111122,1111122' 
CenGOOS,ioos:station:wmo:42067:1,2016-04-20T08:40Z,30.0430,-88.6490,5.0,3.9,135.8,4.5,'1111122,1111122,1111122' 
CenGOOS,ioos:station:wmo:42067:1,2016-04-20T11:40Z,30.0430,-88.6490,5.0,2.4,115.1,2.8,'1111122,1111122,1111122' 
CenGOOS,ioos:station:wmo:42067:1,2016-04-20T14:40Z,30.0430,-88.6490,5.0,4.4,106.0,5.3,'1111122,1111122,1111122' 
CenGOOS,ioos:station:wmo:42067:1,2016-04-20T17:40Z,30.0430,-88.6490,5.0,5.1,113.8,5.9,'1111122,1111122,1111122' 
CenGOOS,ioos:station:wmo:42067:1,2016-04-20T20:40Z,30.0430,-88.6490,5.0,5.4,131.0,6.4,'1111122,1111122,1111122' 
CenGOOS,ioos:station:wmo:42067:1,2016-04-20T23:40Z,30.0430,-88.6490,5.0,3.9,132.1,4.8,'1111122,1111122,1111122' 
CenGOOS,ioos:station:wmo:42067:1,2016-04-21T02:40Z,30.0430,-88.6490,5.0,4.4,118.8,5.3,'1111122,1111122,1111122' 
CenGOOS,ioos:station:wmo:42067:1,2016-04-21T05:40Z,30.0430,-88.6490,5.0,3.7,147.0,4.4,'1111122,1111122,1111122' 
CenGOOS,ioos:station:wmo:42067:1,2016-04-21T08:51Z,30.0430,-88.6490,5.0,2.9,175.7,3.6,'1111122,1111122,1111122' 
CenGOOS,ioos:station:wmo:42067:1,2016-04-21T11:40Z,30.0430,-88.6490,5.0,3.5,161.9,3.9,'1111122,1111122,1111122' 
CenGOOS,ioos:station:wmo:42067:1,2016-04-21T14:40Z,30.0430,-88.6490,5.0,3.6,146.6,4.3,'1111122,1111122,1111122' 
CenGOOS,ioos:station:wmo:42067:1,2016-04-21T17:40Z,30.0430,-88.6490,5.0,5.1,178.3,6.0,'1111122,1111122,1111122' 
CenGOOS,ioos:station:wmo:42067:1,2016-04-21T20:40Z,30.0430,-88.6490,5.0,4.7,146.0,6.2,'1111122,1111122,1111122' 
CenGOOS,ioos:station:wmo:42067:1,2016-04-21T23:40Z,30.0430,-88.6490,5.0,6.1,162.0,7.4,'1111122,1111122,1111122' 
CenGOOS,ioos:station:wmo:42067:1,2016-04-22T02:40Z,30.0430,-88.6490,5.0,6.2,167.4,7.2,'1111122,1111122,1111122' 
CenGOOS,ioos:station:wmo:42067:1,2016-04-22T05:40Z,30.0430,-88.6490,5.0,5.0,189.0,6.6,'1111122,1111122,1111122' 
CenGOOS,ioos:station:wmo:42067:1,2016-04-22T08:40Z,30.0430,-88.6490,5.0,4.5,213.4,5.4,'1111122,1111122,1111122' 
CenGOOS,ioos:station:wmo:42067:1,2016-04-22T11:40Z,30.0430,-88.6490,5.0,2.1,240.3,2.7,'1111122,1111122,1111122' 
CenGOOS,ioos:station:wmo:42067:1,2016-04-22T14:40Z,30.0430,-88.6490,5.0,4.0,324.6,5.0,'1111122,1111122,1111122' 
CenGOOS,ioos:station:wmo:42067:1,2016-04-22T17:40Z,30.0430,-88.6490,5.0,1.9,307.2,2.8,'1111122,1111122,1111122' 
CenGOOS,ioos:station:wmo:42067:1,2016-04-22T20:40Z,30.0430,-88.6490,5.0,5.8,257.3,6.8,'1111122,1111122,1111122' 
CenGOOS,ioos:station:wmo:42067:1,2016-04-22T23:40Z,30.0430,-88.6490,5.0,5.6,257.5,6.7,'1111122,1111122,1111122' 
CenGOOS,ioos:station:wmo:42067:1,2016-04-23T02:40Z,30.0430,-88.6490,5.0,6.0,293.8,6.9,'1111122,1111122,1111122' 
CenGOOS,ioos:station:wmo:42067:1,2016-04-23T05:40Z,30.0430,-88.6490,5.0,7.3,352.9,8.7,'1111122,1111122,1111122' 
CenGOOS,ioos:station:wmo:42067:1,2016-04-23T08:40Z,30.0430,-88.6490,5.0,8.0,359.6,9.6,'1111122,1111122,1111122' 
CenGOOS,ioos:station:wmo:42067:1,2016-04-23T14:40Z,30.0430,-88.6490,5.0,4.5,21.4,5.6,'1111122,1111122,1111122' 
CenGOOS,ioos:station:wmo:42067:1,2016-04-23T17:40Z,30.0430,-88.6490,5.0,2.1,286.7,2.7,'1111122,1111122,1111122' 
CenGOOS,ioos:station:wmo:42067:1,2016-04-23T20:40Z,30.0430,-88.6490,5.0,3.4,258.1,4.0,'1111122,1111122,1111122' 
CenGOOS,ioos:station:wmo:42067:1,2016-04-23T23:40Z,30.0430,-88.6490,5.0,5.0,272.4,5.8,'1111122,1111122,1111122' 
CenGOOS,ioos:station:wmo:42067:1,2016-04-24T02:40Z,30.0430,-88.6490,5.0,2.0,177.2,2.5,'1111122,1111122,1111122' 
CenGOOS,ioos:station:wmo:42067:1,2016-04-24T05:40Z,30.0430,-88.6490,5.0,2.6,217.0,3.0,'1111122,1111122,1111122' 
CenGOOS,ioos:station:wmo:42067:1,2016-04-24T08:40Z,30.0430,-88.6490,5.0,1.1,282.1,1.2,'1111122,1111122,1111122' 
CenGOOS,ioos:station:wmo:42067:1,2016-04-24T11:40Z,30.0430,-88.6490,5.0,1.9,8.3,2.1,'1111122,1111122,1111122' 
CenGOOS,ioos:station:wmo:42067:1,2016-04-24T14:40Z,30.0430,-88.6490,5.0,3.2,59.4,3.7,'1111122,1111122,1111122' 
CenGOOS,ioos:station:wmo:42067:1,2016-04-24T17:40Z,30.0430,-88.6490,5.0,3.5,124.8,4.5,'1111122,1111122,1111122' 
CenGOOS,ioos:station:wmo:42067:1,2016-04-24T20:40Z,30.0430,-88.6490,5.0,1.7,159.4,2.4,'1111122,1111122,1111122' 
CenGOOS,ioos:station:wmo:42067:1,2016-04-24T23:40Z,30.0430,-88.6490,5.0,2.0,156.9,2.9,'1111122,1111122,1111122' 
CenGOOS,ioos:station:wmo:42067:1,2016-04-25T02:40Z,30.0430,-88.6490,5.0,3.4,143.8,4.3,'1111122,1111122,1111122' 
CenGOOS,ioos:station:wmo:42067:1,2016-04-25T05:40Z,30.0430,-88.6490,5.0,5.2,161.4,6.1,'1111122,1111122,1111122' 
CenGOOS,ioos:station:wmo:42067:1,2016-04-25T11:40Z,30.0430,-88.6490,5.0,3.5,175.5,4.1,'1111122,1111122,1111122' 
CenGOOS,ioos:station:wmo:42067:1,2016-04-25T14:40Z,30.0430,-88.6490,5.0,3.5,147.9,4.2,'1111122,1111122,1111122' 
CenGOOS,ioos:station:wmo:42067:1,2016-04-25T17:40Z,30.0430,-88.6490,5.0,2.8,159.9,3.5,'1111122,1111122,1111122' 
CenGOOS,ioos:station:wmo:42067:1,2016-04-25T23:40Z,30.0430,-88.6490,5.0,4.0,145.4,4.7,'1111122,1111122,1111122' 
CenGOOS,ioos:station:wmo:42067:1,2016-04-26T02:40Z,30.0430,-88.6490,5.0,5.6,153.1,6.7,'1111122,1111122,1111122' 
CenGOOS,ioos:station:wmo:42067:1,2016-04-26T08:40Z,30.0430,-88.6490,5.0,5.1,187.4,5.9,'1111122,1111122,1111122' 
CenGOOS,ioos:station:wmo:42067:1,2016-04-26T11:40Z,30.0430,-88.6490,5.0,3.4,148.2,4.0,'1111122,1111122,1111122' 
CenGOOS,ioos:station:wmo:42067:1,2016-04-26T14:40Z,30.0430,-88.6490,5.0,4.5,146.1,5.4,'1111122,1111122,1111122' 
CenGOOS,ioos:station:wmo:42067:1,2016-04-26T17:40Z,30.0430,-88.6490,5.0,5.4,141.0,6.3,'1111122,1111122,1111122' 
CenGOOS,ioos:station:wmo:42067:1,2016-04-26T20:40Z,30.0430,-88.6490,5.0,4.9,144.5,5.9,'1111122,1111122,1111122' 
CenGOOS,ioos:station:wmo:42067:1,2016-04-26T23:40Z,30.0430,-88.6490,5.0,5.8,137.3,6.7,'1111122,1111122,1111122' 
CenGOOS,ioos:station:wmo:42067:1,2016-04-27T02:40Z,30.0430,-88.6490,5.0,6.1,159.1,7.1,'1111122,1111122,1111122' 
CenGOOS,ioos:station:wmo:42067:1,2016-04-27T05:40Z,30.0430,-88.6490,5.0,6.3,168.5,7.7,'1111122,1111122,1111122' 
CenGOOS,ioos:station:wmo:42067:1,2016-04-27T08:40Z,30.0430,-88.6490,5.0,6.1,172.3,7.2,'1111122,1111122,1111122' 
CenGOOS,ioos:station:wmo:42067:1,2016-04-27T11:40Z,30.0430,-88.6490,5.0,5.0,167.3,5.9,'1111122,1111122,1111122' 
CenGOOS,ioos:station:wmo:42067:1,2016-04-27T14:40Z,30.0430,-88.6490,5.0,5.1,159.4,6.6,'1111122,1111122,1111122' 
CenGOOS,ioos:station:wmo:42067:1,2016-04-27T17:40Z,30.0430,-88.6490,5.0,3.3,141.5,4.7,'1111122,1111122,1111122' 
CenGOOS,ioos:station:wmo:42067:1,2016-04-29T08:40Z,30.0430,-88.6490,5.0,4.3,131.8,5.2,'1111122,1111122,1111122' 
CenGOOS,ioos:station:wmo:42067:1,2016-04-29T11:40Z,30.0430,-88.6490,5.0,6.2,126.5,6.9,'1111122,1111122,1111122' 
CenGOOS,ioos:station:wmo:42067:1,2016-04-29T14:40Z,30.0430,-88.6490,5.0,5.2,135.3,6.0,'1111122,1111122,1111122' 
CenGOOS,ioos:station:wmo:42067:1,2016-04-29T17:40Z,30.0430,-88.6490,5.0,3.4,122.4,3.9,'1111122,1111122,1111122' 
 
DISCLAIMER: The Gulf of Mexico Coastal and Ocean Observing (GCOOS) Data Portal aggregates data from the regional data providers for the convenience of all data users. Data published on this website should not be used for navigation or certain other uses as we cannot guarantee data accuracy or availability. The data and delivery services are provided 'as is' without warranty of any kind. Data Source: Gulf of Mexico Coastal Ocean Observing System Data Portal (http://data.gcoos.org/) 
